Tracking 18851 objects as of 25-Nov-2017
HD Live streaming from Space Station
objects crossing your sky now

FENGYUN 1C DEB

Track FENGYUN 1C DEB now!
10-day predictions


NORAD ID: 30921
Int'l Code: 1999-025AZK
Perigee: 830.1 km
Apogee: 864.3 km
Inclination: 99.0 °
Period: 101.7 minutes
Semi major axis: 7218 km
RCS: 0.037 m2 (small)
Launch date: May 10, 1999
Source: People's Republic of China (PRC)
Launch site: Taiyaun Space Center, China (TSC)

Note: This is SATELLITE DEBRIS
aabbcc
Your satellite tracking list
Your tracking list is empty




NASA's NSSDC Master Catalog

Two Line Element Set (TLE):
1 30921U 99025AZK 17328.61003215 +.00000857 +00000-0 +45915-3 0  9996
2 30921 099.0282 348.6084 0023706 172.2404 306.2226 14.15667004550979
Source of the keplerian elements: AFSPC